EW3770 Weather Reports


Display with metric or nautical units.
time (UTC)temp
F
wind
direction
speed
MPH
gust
MPH
rain 1hr
in
rain 24hr
in
rain mn
in
humidity
%
barometer
mb
20260505000003 69 360 4.0 10.0 0.00 0.00 0.00 31 1027.4
20260504235403 69 360 5.0 10.0 0.00 0.00 0.00 31 1027.4
20260504234503 69 360 3.0 10.0 0.00 0.00 0.00 32 1027.4
20260504233603 69 360 3.0 8.0 0.00 0.00 0.00 32 1027.4
20260504232724 69 360 4.0 10.0 0.00 0.00 0.00 33 1027.4
20260504231824 70 10 7.0 12.0 0.00 0.00 0.00 31 1027.4
20260504230903 70 43 7.0 14.0 0.00 0.00 0.00 31 1027.4
20260504230003 71 36 8.0 14.0 0.00 0.00 0.00 31 1027.4
20260504225403 70 41 8.0 18.0 0.00 0.00 0.00 31 1027.4
20260504224503 72 58 11.0 18.0 0.00 0.00 0.00 30 1027.4
20260504223624 73 85 5.0 15.0 0.00 0.00 0.00 28 1027.4
20260504222703 73 69 6.0 16.0 0.00 0.00 0.00 28 1027.4
20260504221803 74 329 3.0 13.0 0.00 0.00 0.00 27 1027.4
20260504220903 73 320 4.0 11.0 0.00 0.00 0.00 29 1027.4
20260504220024 72 360 4.0 13.0 0.00 0.00 0.00 29 1027.4
20260504215403 71 360 6.0 13.0 0.00 0.00 0.00 31 1027.4
20260504214524 70 360 6.0 21.0 0.00 0.00 0.00 29 1027.4
20260504213624 69 360 5.0 21.0 0.00 0.00 0.00 34 1027.4
20260504212703 70 360 7.0 20.0 0.00 0.00 0.00 33 1027.4
20260504211803 71 360 7.0 20.0 0.00 0.00 0.00 31 1027.4
20260504210924 72 360 5.0 11.0 0.00 0.00 0.00 26 1027.4
20260504210004 73 360 6.0 14.0 0.00 0.00 0.00 27 1027.4
20260504205403 74 356 6.0 13.0 0.00 0.00 0.00 27 1027.4
20260504204503 75 334 4.0 10.0 0.00 0.00 0.00 26 1027.4
20260504203603 76 227 1.0 9.0 0.00 0.00 0.00 27 1027.4
20260504202724 75 100 0.0 3.0 0.00 0.00 0.00 26 1027.4
20260504201803 75 102 0.0 2.0 0.00 0.00 0.00 28 1027.4
20260504200904 74 82 1.0 4.0 0.00 0.00 0.00 29 1027.4
20260504200004 74 113 3.0 8.0 0.00 0.00 0.00 26 1027.4
20260504195403 74 116 2.0 8.0 0.00 0.00 0.00 26 1027.4
20260504194503 75 45 1.0 6.0 0.00 0.00 0.00 27 1027.4
20260504193604 75 155 1.0 4.0 0.00 0.00 0.00 27 1027.4
20260504192703 75 333 0.0 3.0 0.00 0.00 0.00 29 1027.4
20260504191824 74 111 2.0 7.0 0.00 0.00 0.00 28 1027.4
20260504190903 75 127 2.0 9.0 0.00 0.00 0.00 28 1027.4
20260504190003 74 131 2.0 9.0 0.00 0.00 0.00 26 1027.4
20260504185403 75 120 4.0 9.0 0.00 0.00 0.00 26 1027.4
20260504184524 75 124 3.0 10.0 0.00 0.00 0.00 27 1027.4
20260504183603 74 117 2.0 8.0 0.00 0.00 0.00 31 1027.4
20260504182703 73 6 4.0 11.0 0.00 0.00 0.00 30 1027.4
20260504181803 73 6 1.0 5.0 0.00 0.00 0.00 29 1027.4
20260504180924 73 133 2.0 10.0 0.00 0.00 0.00 32 1027.4
20260504180003 73 133 4.0 12.0 0.00 0.00 0.00 31 1027.4
20260504175403 73 125 5.0 16.0 0.00 0.00 0.00 32 1027.4
20260504174503 74 141 3.0 11.0 0.00 0.00 0.00 31 1027.4
20260504173624 74 159 2.0 9.0 0.00 0.00 0.00 30 1027.4
20260504172704 73 145 4.0 11.0 0.00 0.00 0.00 31 1027.4
20260504171824 73 139 3.0 14.0 0.00 0.00 0.00 32 1027.4
20260504170925 73 151 3.0 14.0 0.00 0.00 0.00 30 1027.4
20260504150924 67 164 2.0 6.0 0.00 0.00 0.00 41 1027.4
20260504140904 64 163 1.0 5.0 0.00 0.00 0.00 45 1027.4
20260504081803 59 126 1.0 7.0 0.00 0.00 0.00 40 1027.4
20260504080903 59 129 1.0 5.0 0.00 0.00 0.00 38 1027.4
20260504050003 62 0 0.0 0.0 0.00 0.00 0.00 32 1027.4
20260504045403 62 0 0.0 0.0 0.00 0.00 0.00 33 1027.4
20260504044504 63 0 0.0 0.0 0.00 0.00 0.00 32 1027.4
20260504043603 64 0 0.0 0.0 0.00 0.00 0.00 29 1027.4
20260504042703 64 319 0.0 1.0 0.00 0.00 0.00 29 1027.4
20260504041824 65 319 0.0 2.0 0.00 0.00 0.00 28 1027.4
20260504040924 65 319 0.0 2.0 0.00 0.00 0.00 27 1027.4
20260504040003 65 320 1.0 3.0 0.00 0.00 0.00 27 1027.4
20260504035403 66 320 1.0 3.0 0.00 0.00 0.00 27 1027.4
20260504034503 66 320 0.0 2.0 0.00 0.00 0.00 27 1027.4
20260504033624 67 321 0.0 1.0 0.00 0.00 0.00 26 1027.4
20260504032724 67 321 0.0 1.0 0.00 0.00 0.00 25 1027.4
20260504031803 68 321 0.0 3.0 0.00 0.00 0.00 24 1027.4
20260504030903 69 321 0.0 3.0 0.00 0.00 0.00 24 1027.4
20260504030024 70 321 0.0 1.0 0.00 0.00 0.00 24 1027.4
20260504025403 70 321 0.0 1.0 0.00 0.00 0.00 23 1027.4
20260504024503 70 321 0.0 1.0 0.00 0.00 0.00 22 1027.4
20260504023603 71 320 0.0 2.0 0.00 0.00 0.00 22 1027.4
20260504022703 71 320 0.0 1.0 0.00 0.00 0.00 21 1027.4
20260504021803 71 321 0.0 3.0 0.00 0.00 0.00 21 1027.4
20260504020903 71 321 0.0 4.0 0.00 0.00 0.00 21 1027.4
20260504020003 72 321 1.0 3.0 0.00 0.00 0.00 20 1027.4
20260504015424 72 320 1.0 4.0 0.00 0.00 0.00 20 1027.4
20260504014503 72 328 2.0 8.0 0.00 0.00 0.00 20 1027.4
20260504013603 73 327 2.0 5.0 0.00 0.00 0.00 19 1027.4
20260504012704 73 330 2.0 6.0 0.00 0.00 0.00 19 1027.4
20260504011803 73 322 3.0 9.0 0.00 0.00 0.00 19 1027.4
20260504010903 74 340 2.0 8.0 0.00 0.00 0.00 18 1027.4
20260504010004 74 354 3.0 9.0 0.00 0.00 0.00 17 1027.4
20260504005403 74 347 3.0 9.0 0.00 0.00 0.00 17 1027.4
20260504004503 74 357 1.0 6.0 0.00 0.00 0.00 17 1027.4
20260504003603 75 359 2.0 5.0 0.00 0.00 0.00 17 1027.4
20260504002703 75 358 2.0 8.0 0.00 0.00 0.00 16 1027.4
20260504001803 75 344 3.0 10.0 0.00 0.00 0.00 15 1027.4
20260504000924 75 344 3.0 9.0 0.00 0.00 0.00 16 1027.4